Regional Weather Roundup
Issued by NWS Cleveland, OH

Home | Current Version | Previous Version | Text Only | Print | Product List | Glossary Off
Versions: 1 2 3 4 5 6 7 8 9 10 11 12 13 14 15 16 17 18 19 20 21 22 23 24 25 26 27 28 29 30 31 32 33 34 35 36 37 38 39 40 41 42 43 44 45 46 47 48 49 50

000
ASUS41 KCLE 200800
RWRCLE
OHIO REGIONAL WEATHER ROUNDUP
NATIONAL WEATHER SERVICE WILMINGTON, OH
300 AM EST FRI JAN 20 2017

NOTE: "FAIR" INDICATES FEW OR NO CLOUDS BELOW 12,000 FEET WITH NO
SIGNIFICANT WEATHER AND/OR OBSTRUCTIONS TO VISIBILITY.

OHZ001>008-015>018-024>027-034-035-043-044-200900-
   NORTHWEST OHIO

CITY           SKY/WX    TMP DP  RH WIND       PRES   REMARKS
DEFIANCE       LGT RAIN  35  34  96 E12       29.71F FOG     WCI  27
FINDLAY        LGT RAIN  38  34  85 E10       29.72F FOG
TOLEDO EXPRESS LGT RAIN  35  35 100 E10       29.75F FOG     WCI  27
TOLEDO EXEC    CLOUDY    35  35 100 E7        29.78F FOG     WCI  29
LIMA           RAIN      39  39 100 E17G24    29.67F FOG
$$

OHZ009>014-019>023-028>033-038-089-200900-
   NORTHEAST OHIO

CITY           SKY/WX    TMP DP  RH WIND       PRES   REMARKS
CLE-HOPKINS    CLOUDY    39  33  79 S8        29.82F
CLE-LAKEFRONT  FAIR      39  34  82 SE9       29.79F
CUY CO. ARPT   NOT AVBL
LORAIN-ELYRIA  FAIR      36  32  85 SE6       29.79F
ASHTABULA      FAIR      35  32  88 SE8       29.85F WCI  29
AKRON-CANTON   CLOUDY    37  32  82 E10       29.79F HAZE
WOOSTER        NOT AVBL
MANSFIELD      CLOUDY    36  36 100 SE13      29.75F FOG
YOUNGSTOWN     CLOUDY    34  31  88 E8        29.82F WCI  27
$$

OHZ042-051>053-060>062-070>072-077>081-200900-
  SOUTHWEST OHIO

CITY           SKY/WX    TMP DP  RH WIND       PRES   REMARKS
CINC-COVINGTON RAIN      49  49 100 SE12      29.59F FOG
CINC-LUNKEN    LGT RAIN  48  48 100 N5        29.62F
HAMILTON       LGT RAIN  48  47  96 E3        29.62F FOG
DAYTON         NOT AVBL
WRIGHT-PAT AFB LGT RAIN  43  43 100 E13       29.64F
DAYTON GENERAL RAIN      45  43  93 E14G23    29.61F FOG
WILMINGTON     LGT RAIN  43  42  97 E14       29.65F FOG
$$

OHZ036-037-039>041-045>050-054>059-063>069-073>076-082>088-200900-
  CENTRAL AND SOUTHEAST OHIO

CITY           SKY/WX    TMP DP  RH WIND       PRES   REMARKS
COLUMBUS       LGT RAIN  42  38  85 E14       29.72F
OSU AIRPORT    LGT RAIN  40  40 100 E9        29.72F FOG
BOLTON FIELD   NOT AVBL
RICKENBACK AFB NOT AVBL
NEWARK         LGT RAIN  39  37  92 NE6       29.75F FOG
MARION         LGT RAIN  38  36  92 SE14      29.74F FOG
LANCASTER      LGT RAIN  42  39  89 E8        29.74F
ZANESVILLE     LGT RAIN  40  36  86 E3        29.78F
NEW PHILLY     MOCLDY    38  35  89 NE3       29.80F
$$




USA.gov is the U.S. government's official web portal to all federal, state and local government web resources and services.